This is the latest recevied weather packets stored in our database for station/object LU3HGB-WX. If no packets are shown the sender has not sent any weather packets the latest 10 day(s).
| Time | Temp. | Humidity | Pressure | Rain* | Wind** | Luminosity | Snow |
|---|---|---|---|---|---|---|---|
| 1777742559 | 16.67° C | 52% | 1025 hPa | 0 mm | - | 279 W/m² | - |
| 1777742260 | 16.11° C | 51% | 1025 hPa | 0 mm | - | 255 W/m² | - |
| 1777741961 | 16.11° C | 52% | 1025 hPa | 0 mm | - | 185 W/m² | - |
| 1777741659 | 16.11° C | 53% | 1025 hPa | 0 mm | - | 209 W/m² | - |
| 1777741360 | 16.11° C | 56% | 1025 hPa | 0 mm | - | 232 W/m² | - |
| 1777741059 | 15.56° C | 55% | 1025 hPa | 0 mm | - | 206 W/m² | - |
| 1777740760 | 15.56° C | 52% | 1025 hPa | 0 mm | - | 198 W/m² | - |
| 1777740460 | 15.56° C | 58% | 1026 hPa | 0 mm | - | 179 W/m² | - |
| 1777740160 | 15.56° C | 53% | 1026 hPa | 0 mm | - | 189 W/m² | - |
| 1777739859 | 15° C | 55% | 1026 hPa | 0 mm | - | 171 W/m² | - |
| 1777739559 | 15° C | 54% | 1026 hPa | 0 mm | - | 141 W/m² | - |
| 1777739260 | 15° C | 54% | 1026 hPa | 0 mm | - | 123 W/m² | - |
| 1777738959 | 15.56° C | 53% | 1026 hPa | 0 mm | - | 132 W/m² | - |
| 1777738659 | 15.56° C | 56% | 1026 hPa | 0 mm | - | 153 W/m² | - |
| 1777738360 | 15° C | 55% | 1026 hPa | 0 mm | - | 174 W/m² | - |
| 1777738059 | 15° C | 55% | 1026 hPa | 0 mm | - | 144 W/m² | - |
| 1777737760 | 15° C | 55% | 1026 hPa | 0 mm | - | 155 W/m² | - |
| 1777737459 | 15° C | 53% | 1026 hPa | 0 mm | - | 166 W/m² | - |
| 1777737159 | 15° C | 53% | 1026 hPa | 0 mm | - | 185 W/m² | - |
| 1777736860 | 15° C | 52% | 1026 hPa | 0 mm | - | 194 W/m² | - |
| 1777736559 | 15° C | 58% | 1026 hPa | 0 mm | - | 231 W/m² | - |
| 1777736259 | 15° C | 59% | 1026 hPa | 0 mm | - | 233 W/m² | - |
| 1777735960 | 15° C | 60% | 1026 hPa | 0 mm | - | 263 W/m² | - |
| 1777735660 | 14.44° C | 61% | 1026 hPa | 0 mm | - | 279 W/m² | - |
| 1777735360 | 14.44° C | 63% | 1026 hPa | 0 mm | - | 237 W/m² | - |
* Rain latest hour (hover to see other rain measurements)
** Current wind speed in m/s (hover to see current wind gust speed)